Medford, OR

9:46 PM PDT on April 23, 2017 (GMT -0700)
Rogue Valley International-Medford

Weather History for KMFR - December, 2011

Change the Weather History Date:

Thursday, December 15, 2011

  Actual Average Record
Temperature  
Mean Temperature 40 °F 39 °F  
Max Temperature 52 °F 46 °F 64 °F (1941)
Min Temperature 28 °F 33 °F 0 °F (1919)
Degree Days  
Heating Degree Days 25 26  
Month to date heating degree days 475 378  
Since 1 July heating degree days 1333 1347  
Cooling Degree Days 0 0  
Month to date cooling degree days 0 0  
Year to date cooling degree days 783 829  
Moisture  
Dew Point 32 °F    
Average Humidity 75    
Maximum Humidity 96    
Minimum Humidity 54    
Precipitation  
Precipitation T in 0.11 in 1.08 in (1929)
Month to date precipitation 0.01 1.74  
Year to date precipitation 15.49 16.60  
Snow  
Snow 0.00 in 0.00 in - ()
Month to date snowfall T 0.5  
Since 1 July snowfall T 0.7  
Snow Depth 0.00 in    
Sea Level Pressure  
Sea Level Pressure 30.34 in    
Wind  
Wind Speed 2 mph (SE)    
Max Wind Speed 7 mph    
Max Gust Speed 10 mph    
Visibility 8 miles    
Events      
T = Trace of Precipitation, MM = Missing Value Source: NWS Daily Summary

Daily Weather History Graph

Daily Weather History Graph

Search for Another Location

Airport or City:

Trip Planner

Search our weather history database for the weather conditions in past years. The results will help you decide how hot, cold, wet, or windy it might be!

Date:

Astronomy

Dec. 15, 2011 Rise Set
Actual Time 7:33 AM PST 4:39 PM PST
Civil Twilight 7:01 AM PST 5:11 PM PST
Nautical Twilight 6:26 AM PST 5:46 PM PST
Astronomical Twilight 5:52 AM PST 6:21 PM PST
Moon 10:17 PM PST (12/15) 10:47 AM PST (12/15)
Length of Visible Light 10h 09m
Length of Day
9h 05m
Waning Gibbous, 73% of the Moon is Illuminated
Dec 15
Waning Gibbous
Dec 17
Last Quarter
Dec 24
New
Dec 31
First Quarter
Jan 8
Full

Hourly Weather History & Observations

Time (PST) Temp. Windchill Dew Point Humidity Pressure Visibility Wind Dir Wind Speed Gust Speed Precip Events Conditions
12:53 AM 34.0 °F - 32.0 °F 92% 30.14 in 6.0 mi Calm Calm - N/A   Overcast
1:53 AM 33.1 °F 28.7 °F 30.9 °F 92% 30.15 in 6.0 mi SSE 4.6 mph - N/A   Mostly Cloudy
2:53 AM 34.0 °F 28.8 °F 32.0 °F 92% 30.17 in 6.0 mi SE 5.8 mph - N/A   Overcast
3:53 AM 35.6 °F - 32.0 °F 87% 30.16 in 8.0 mi Calm Calm - N/A   Overcast
4:53 AM 30.9 °F 27.5 °F 28.9 °F 92% 30.21 in 5.0 mi ENE 3.5 mph - N/A   Overcast
5:53 AM 33.8 °F - 30.2 °F 87% 30.21 in 7.0 mi Calm Calm - N/A   Overcast
6:53 AM 33.1 °F - 32.0 °F 96% 30.27 in 6.0 mi Calm Calm - N/A   Overcast
7:53 AM 34.0 °F - 30.9 °F 89% 30.31 in 5.0 mi Calm Calm - N/A   Overcast
8:53 AM 36.0 °F - 32.0 °F 86% 30.34 in 5.0 mi Calm Calm - N/A   Overcast
9:53 AM 39.0 °F - 34.0 °F 82% 30.37 in 6.0 mi Calm Calm - 0.00 in   Haze
10:53 AM 43.0 °F - 36.0 °F 76% 30.37 in 7.0 mi Calm Calm - N/A   Partly Cloudy
11:53 AM 46.0 °F 43.9 °F 36.0 °F 68% 30.36 in 10.0 mi North 4.6 mph - N/A   Scattered Clouds
12:53 PM 48.9 °F - 36.0 °F 61% 30.37 in 10.0 mi NNW 3.5 mph - N/A   Scattered Clouds
1:53 PM 51.1 °F - 36.0 °F 56% 30.36 in 10.0 mi Calm Calm - N/A   Scattered Clouds
2:53 PM 51.1 °F - 35.1 °F 54% 30.36 in 10.0 mi Calm Calm - N/A   Scattered Clouds
3:53 PM 51.1 °F - 35.1 °F 54% 30.38 in 10.0 mi Calm Calm - N/A   Partly Cloudy
4:53 PM 46.9 °F - 36.0 °F 66% 30.39 in 10.0 mi Calm Calm - N/A   Partly Cloudy
5:53 PM 43.0 °F 41.3 °F 35.1 °F 74% 30.40 in 10.0 mi South 3.5 mph - N/A   Clear
6:53 PM 39.9 °F 36.7 °F 33.1 °F 77% 30.43 in 10.0 mi South 4.6 mph - N/A   Clear
7:53 PM 37.0 °F - 30.9 °F 79% 30.45 in 10.0 mi Calm Calm - N/A   Clear
8:53 PM 30.9 °F - 27.0 °F 85% 30.47 in 10.0 mi Calm Calm - N/A   Clear
9:53 PM 30.0 °F 25.2 °F 27.0 °F 88% 30.49 in 10.0 mi ENE 4.6 mph - N/A   Clear
10:53 PM 30.9 °F 27.5 °F 28.0 °F 89% 30.49 in 10.0 mi SW 3.5 mph - N/A   Clear
11:53 PM 28.0 °F - 26.1 °F 92% 30.50 in 8.0 mi Calm Calm - N/A   Clear